Language: 


Des rapports , des résumés tant et plus, au choix de chacun....


Données statistiques de la station
Quotidien Rapport Juillet 16, 2017 Unités:  Métrique    Anglais   les deux
« Précédent Jour
Suivant Jour »
Quotidien Hebdomadaire Mensuel Annuel Actuel
  Haut: Bas: Moyen:
Température: 26.2 °C 16.1 °C 19.8 °C
Pt de rosée: 20.0 °C 14.0 °C 17 °C
Humidité: 95 % 64 % 84 %
Vitesse du vent: 17.7 km/h 0.0 km/h 6.4 km/h
Rafales: 19.5 km/h - -
Vent:- - WSW
Pression: 1022.9 hPa 1020.9 hPa -
Précipitation: 0.0 mm    
Historical Graphs
 
 
Données statistiques pour Juillet 16, 2017
Heure Température Point de rosée Pression Vent Vitesse du vent Refales Humidité Pluie (taux horaire)
00:00 17.1 °C 14.0 °C 1021.9 hPa West 10.1 km/h 11.6 km/h 83 % 0.0 mm
00:05 17.1 °C 14.0 °C 1021.9 hPa WSW 4.0 km/h 10.1 km/h 83 % 0.0 mm
00:10 17.1 °C 14.0 °C 1021.9 hPa WSW 9.7 km/h 10.1 km/h 83 % 0.0 mm
00:15 17.1 °C 14.0 °C 1021.9 hPa WSW 7.9 km/h 9.7 km/h 83 % 0.0 mm
00:20 17.1 °C 14.0 °C 1021.9 hPa SSW 7.9 km/h 9.7 km/h 83 % 0.0 mm
00:25 17.1 °C 14.0 °C 1021.9 hPa WSW 8.7 km/h 12.6 km/h 84 % 0.0 mm
00:30 17.1 °C 14.0 °C 1021.9 hPa SW 8.7 km/h 12.6 km/h 84 % 0.0 mm
00:35 17.1 °C 14.0 °C 1021.9 hPa WSW 6.1 km/h 12.6 km/h 84 % 0.0 mm
00:40 17.1 °C 15.0 °C 1021.9 hPa WSW 8.7 km/h 10.5 km/h 85 % 0.0 mm
00:45 17.1 °C 14.0 °C 1021.9 hPa WSW 8.7 km/h 9.7 km/h 84 % 0.0 mm
00:50 17.1 °C 15.0 °C 1021.9 hPa WSW 5.0 km/h 10.1 km/h 85 % 0.0 mm
00:55 17.1 °C 15.0 °C 1021.9 hPa SW 8.7 km/h 11.9 km/h 85 % 0.0 mm
01:00 17.1 °C 15.0 °C 1021.9 hPa WSW 9.0 km/h 12.2 km/h 86 % 0.0 mm
01:05 17.1 °C 15.0 °C 1021.9 hPa SW 5.0 km/h 12.2 km/h 86 % 0.0 mm
01:10 17.1 °C 15.0 °C 1021.9 hPa Calm   10.5 km/h 86 % 0.0 mm
01:15 17.1 °C 15.0 °C 1021.9 hPa WSW 9.7 km/h 10.5 km/h 86 % 0.0 mm
01:20 17.0 °C 15.0 °C 1021.9 hPa WSW 9.0 km/h 9.7 km/h 87 % 0.0 mm
01:25 17.1 °C 15.0 °C 1021.9 hPa WSW 7.9 km/h 9.7 km/h 87 % 0.0 mm
01:30 17.1 °C 15.0 °C 1021.9 hPa SW 5.5 km/h 9.3 km/h 88 % 0.0 mm
01:35 17.1 °C 15.0 °C 1021.9 hPa SSW 5.0 km/h 10.1 km/h 88 % 0.0 mm
01:36 17.1 °C 15.0 °C 1021.9 hPa WSW 6.1 km/h 10.1 km/h 88 % 0.0 mm
01:42 17.1 °C 15.0 °C 1021.9 hPa Calm   10.1 km/h 88 % 0.0 mm
01:47 17.1 °C 15.0 °C 1021.9 hPa WSW 4.7 km/h 7.9 km/h 89 % 0.0 mm
01:52 17.1 °C 15.0 °C 1021.9 hPa SW 5.8 km/h 7.9 km/h 89 % 0.0 mm
01:57 17.1 °C 15.0 °C 1021.9 hPa WSW 5.8 km/h 7.9 km/h 89 % 0.0 mm
02:02 17.0 °C 15.0 °C 1021.9 hPa SW 6.9 km/h 7.9 km/h 89 % 0.0 mm
02:07 17.0 °C 15.0 °C 1021.9 hPa West 4.3 km/h 7.6 km/h 89 % 0.0 mm
02:12 17.0 °C 15.0 °C 1021.9 hPa SW 5.5 km/h 7.6 km/h 89 % 0.0 mm
02:17 17.0 °C 15.0 °C 1021.9 hPa WSW 5.5 km/h 9.3 km/h 90 % 0.0 mm
02:22 17.0 °C 15.0 °C 1021.9 hPa WSW 3.2 km/h 9.3 km/h 90 % 0.0 mm
02:27 17.0 °C 15.0 °C 1021.9 hPa SSW 6.1 km/h 7.9 km/h 90 % 0.0 mm
02:32 17.0 °C 15.0 °C 1021.9 hPa WSW 10.5 km/h 10.5 km/h 90 % 0.0 mm
02:37 17.0 °C 15.0 °C 1021.9 hPa Calm   10.5 km/h 90 % 0.0 mm
02:42 17.0 °C 15.0 °C 1021.9 hPa SW 5.8 km/h 6.4 km/h 90 % 0.0 mm
02:47 17.0 °C 16.0 °C 1021.9 hPa Calm   6.4 km/h 91 % 0.0 mm
02:52 17.0 °C 15.0 °C 1021.9 hPa WSW 8.7 km/h 8.7 km/h 90 % 0.0 mm
02:57 17.0 °C 16.0 °C 1021.9 hPa Calm   8.7 km/h 91 % 0.0 mm
03:03 17.0 °C 16.0 °C 1021.9 hPa WSW 4.0 km/h 8.7 km/h 91 % 0.0 mm
03:08 17.0 °C 16.0 °C 1021.9 hPa WSW 5.0 km/h 6.4 km/h 91 % 0.0 mm
03:13 17.1 °C 16.0 °C 1021.9 hPa SW 5.8 km/h 9.3 km/h 91 % 0.0 mm
03:18 17.1 °C 16.0 °C 1021.9 hPa WSW 5.0 km/h 9.3 km/h 91 % 0.0 mm
03:23 17.1 °C 16.0 °C 1021.9 hPa SSW 5.5 km/h 6.1 km/h 91 % 0.0 mm
03:28 17.1 °C 16.0 °C 1021.9 hPa SW 6.4 km/h 6.4 km/h 91 % 0.0 mm
03:33 17.1 °C 16.0 °C 1021.9 hPa SSW 6.1 km/h 6.9 km/h 91 % 0.0 mm
03:38 17.1 °C 16.0 °C 1021.9 hPa SW 9.3 km/h 9.3 km/h 91 % 0.0 mm
03:43 17.1 °C 16.0 °C 1020.9 hPa SW 4.7 km/h 9.3 km/h 92 % 0.0 mm
03:48 17.1 °C 16.0 °C 1020.9 hPa Calm   9.3 km/h 91 % 0.0 mm
03:53 17.1 °C 16.0 °C 1020.9 hPa WSW 5.0 km/h 5.0 km/h 92 % 0.0 mm
03:58 17.1 °C 16.0 °C 1021.9 hPa WSW 9.7 km/h 9.7 km/h 92 % 0.0 mm
04:03 17.1 °C 16.0 °C 1021.9 hPa SW 4.3 km/h 9.7 km/h 92 % 0.0 mm
04:08 17.1 °C 16.0 °C 1021.9 hPa SW 6.1 km/h 9.7 km/h 92 % 0.0 mm
04:13 17.1 °C 16.0 °C 1021.9 hPa SSW 8.7 km/h 8.7 km/h 92 % 0.0 mm
04:18 17.1 °C 16.0 °C 1021.9 hPa SW 4.7 km/h 8.7 km/h 92 % 0.0 mm
04:23 17.1 °C 16.0 °C 1021.9 hPa SW 5.0 km/h 8.7 km/h 92 % 0.0 mm
04:28 17.1 °C 16.0 °C 1020.9 hPa SW 5.0 km/h 5.8 km/h 92 % 0.0 mm
04:34 17.1 °C 16.0 °C 1020.9 hPa Calm   6.9 km/h 92 % 0.0 mm
04:39 17.0 °C 16.0 °C 1020.9 hPa Calm   6.9 km/h 92 % 0.0 mm
04:44 17.0 °C 16.0 °C 1021.9 hPa WSW 4.7 km/h 6.1 km/h 92 % 0.0 mm
04:49 16.9 °C 16.0 °C 1021.9 hPa Calm   6.1 km/h 93 % 0.0 mm
04:54 16.8 °C 16.0 °C 1021.9 hPa Calm   4.7 km/h 93 % 0.0 mm
04:59 16.6 °C 16.0 °C 1021.9 hPa SW 4.3 km/h 4.3 km/h 93 % 0.0 mm
05:04 16.5 °C 16.0 °C 1021.9 hPa WSW 4.0 km/h 4.3 km/h 93 % 0.0 mm
05:09 16.4 °C 15.0 °C 1021.9 hPa Calm   5.5 km/h 93 % 0.0 mm
05:14 16.3 °C 15.0 °C 1021.9 hPa Calm   5.5 km/h 93 % 0.0 mm
05:19 16.2 °C 15.0 °C 1021.9 hPa SW 4.7 km/h 4.7 km/h 93 % 0.0 mm
05:24 16.1 °C 15.0 °C 1021.9 hPa SSW 2.6 km/h 5.5 km/h 93 % 0.0 mm
05:29 16.2 °C 15.0 °C 1020.9 hPa Calm   5.5 km/h 94 % 0.0 mm
05:34 16.2 °C 15.0 °C 1020.9 hPa SW 1.4 km/h 6.4 km/h 94 % 0.0 mm
05:39 16.2 °C 15.0 °C 1020.9 hPa Calm   6.4 km/h 94 % 0.0 mm
05:44 16.3 °C 15.0 °C 1020.9 hPa Calm   1.4 km/h 94 % 0.0 mm
05:49 16.4 °C 16.0 °C 1020.9 hPa SSW 5.0 km/h 5.0 km/h 95 % 0.0 mm
05:54 16.5 °C 16.0 °C 1020.9 hPa Calm   5.0 km/h 95 % 0.0 mm
05:59 16.6 °C 16.0 °C 1021.9 hPa Calm     95 % 0.0 mm
06:04 16.7 °C 16.0 °C 1021.9 hPa Calm   5.8 km/h 95 % 0.0 mm
06:09 16.8 °C 16.0 °C 1021.9 hPa WSW 6.4 km/h 6.4 km/h 95 % 0.0 mm
06:14 16.8 °C 16.0 °C 1021.9 hPa WSW 4.0 km/h 6.4 km/h 95 % 0.0 mm
06:19 16.9 °C 16.0 °C 1021.9 hPa SW 1.4 km/h 5.5 km/h 95 % 0.0 mm
06:24 16.9 °C 16.0 °C 1021.9 hPa WSW 5.0 km/h 5.5 km/h 95 % 0.0 mm
06:29 17.0 °C 16.0 °C 1020.9 hPa SSW 4.3 km/h 5.0 km/h 95 % 0.0 mm
06:34 17.1 °C 16.0 °C 1020.9 hPa SW 5.8 km/h 5.8 km/h 95 % 0.0 mm
06:40 17.2 °C 17.0 °C 1020.9 hPa West 8.7 km/h 8.7 km/h 95 % 0.0 mm
06:45 17.2 °C 17.0 °C 1021.9 hPa WSW 7.9 km/h 8.7 km/h 95 % 0.0 mm
06:50 17.2 °C 17.0 °C 1021.9 hPa WSW 7.9 km/h 8.7 km/h 95 % 0.0 mm
06:55 17.4 °C 17.0 °C 1021.9 hPa WSW 7.9 km/h 7.9 km/h 95 % 0.0 mm
07:00 17.4 °C 17.0 °C 1021.9 hPa West 6.9 km/h 9.3 km/h 95 % 0.0 mm
07:05 17.5 °C 17.0 °C 1021.9 hPa West 6.4 km/h 9.3 km/h 95 % 0.0 mm
07:10 17.5 °C 17.0 °C 1021.9 hPa WSW 4.3 km/h 6.9 km/h 95 % 0.0 mm
07:15 17.5 °C 17.0 °C 1021.9 hPa West 6.4 km/h 9.0 km/h 95 % 0.0 mm
07:20 17.5 °C 17.0 °C 1021.9 hPa West 10.1 km/h 13.7 km/h 95 % 0.0 mm
07:24 17.5 °C 17.0 °C 1021.9 hPa WSW 6.9 km/h 13.7 km/h 95 % 0.0 mm
07:29 17.6 °C 17.0 °C 1021.9 hPa West 4.7 km/h 12.2 km/h 95 % 0.0 mm
07:34 17.6 °C 17.0 °C 1021.9 hPa West 12.6 km/h 12.6 km/h 95 % 0.0 mm
07:39 17.6 °C 17.0 °C 1021.9 hPa WSW 9.3 km/h 12.6 km/h 95 % 0.0 mm
07:40 17.6 °C 17.0 °C 1021.9 hPa West 13.7 km/h 13.7 km/h 95 % 0.0 mm
07:45 17.7 °C 17.0 °C 1021.9 hPa West 11.6 km/h 13.7 km/h 95 % 0.0 mm
07:50 17.7 °C 17.0 °C 1021.9 hPa SSW 7.6 km/h 13.7 km/h 95 % 0.0 mm
07:55 17.7 °C 17.0 °C 1022.9 hPa North 9.0 km/h 11.6 km/h 95 % 0.0 mm
08:00 17.8 °C 17.0 °C 1022.9 hPa WSW 7.6 km/h 10.8 km/h 95 % 0.0 mm
08:05 17.8 °C 17.0 °C 1022.9 hPa WSW 4.0 km/h 9.3 km/h 95 % 0.0 mm
08:10 17.9 °C 17.0 °C 1022.9 hPa West 6.1 km/h 10.1 km/h 95 % 0.0 mm
08:15 17.9 °C 17.0 °C 1022.9 hPa WSW 7.9 km/h 10.1 km/h 95 % 0.0 mm
08:20 18.0 °C 17.0 °C 1022.9 hPa West 14.0 km/h 14.0 km/h 94 % 0.0 mm
08:25 18.0 °C 17.0 °C 1021.9 hPa NW 6.1 km/h 14.0 km/h 94 % 0.0 mm
08:30 18.0 °C 17.0 °C 1021.9 hPa WSW 6.1 km/h 14.0 km/h 94 % 0.0 mm
08:36 18.1 °C 17.0 °C 1021.9 hPa West 4.3 km/h 9.3 km/h 94 % 0.0 mm
08:41 18.1 °C 17.0 °C 1022.9 hPa West 9.0 km/h 10.1 km/h 94 % 0.0 mm
08:46 18.1 °C 17.0 °C 1022.9 hPa West 9.3 km/h 10.5 km/h 94 % 0.0 mm
08:51 18.1 °C 17.0 °C 1022.9 hPa West 9.0 km/h 10.5 km/h 94 % 0.0 mm
08:56 18.2 °C 17.0 °C 1022.9 hPa West 6.9 km/h 9.3 km/h 94 % 0.0 mm
09:01 18.2 °C 17.0 °C 1022.9 hPa WNW 4.0 km/h 11.6 km/h 94 % 0.0 mm
09:06 18.2 °C 17.0 °C 1022.9 hPa WNW 4.3 km/h 11.6 km/h 94 % 0.0 mm
09:11 18.2 °C 17.0 °C 1022.9 hPa West 6.4 km/h 12.6 km/h 94 % 0.0 mm
09:16 18.2 °C 17.0 °C 1022.9 hPa WSW 4.0 km/h 12.6 km/h 94 % 0.0 mm
09:21 18.2 °C 17.0 °C 1022.9 hPa WNW 5.0 km/h 11.9 km/h 94 % 0.0 mm
09:26 18.2 °C 17.0 °C 1022.9 hPa SW 4.7 km/h 8.7 km/h 94 % 0.0 mm
09:31 18.2 °C 18.0 °C 1022.9 hPa SW 12.2 km/h 12.2 km/h 95 % 0.0 mm
09:36 18.4 °C 18.0 °C 1022.9 hPa West 5.0 km/h 16.3 km/h 95 % 0.0 mm
09:38 18.5 °C 18.0 °C 1022.9 hPa West 4.7 km/h 16.3 km/h 95 % 0.0 mm
09:43 18.7 °C 18.0 °C 1022.9 hPa WSW 7.9 km/h 7.9 km/h 95 % 0.0 mm
09:48 18.8 °C 18.0 °C 1022.9 hPa West 2.6 km/h 9.0 km/h 94 % 0.0 mm
09:53 18.9 °C 18.0 °C 1022.9 hPa SW 9.0 km/h 13.0 km/h 94 % 0.0 mm
09:58 18.9 °C 18.0 °C 1022.9 hPa WSW 10.1 km/h 13.0 km/h 94 % 0.0 mm
10:03 18.9 °C 18.0 °C 1022.9 hPa West 10.1 km/h 11.6 km/h 94 % 0.0 mm
10:08 19.0 °C 18.0 °C 1022.9 hPa West 8.7 km/h 11.6 km/h 94 % 0.0 mm
10:13 19.1 °C 18.0 °C 1022.9 hPa WNW 8.7 km/h 10.5 km/h 94 % 0.0 mm
10:19 19.2 °C 18.0 °C 1022.9 hPa WSW 10.5 km/h 10.8 km/h 93 % 0.0 mm
10:24 19.2 °C 18.0 °C 1022.9 hPa WSW 9.0 km/h 10.8 km/h 93 % 0.0 mm
10:29 19.2 °C 18.0 °C 1022.9 hPa WSW 6.4 km/h 13.7 km/h 93 % 0.0 mm
10:34 19.2 °C 18.0 °C 1022.9 hPa West 7.9 km/h 13.7 km/h 93 % 0.0 mm
10:39 19.2 °C 18.0 °C 1022.9 hPa West 6.9 km/h 11.9 km/h 93 % 0.0 mm
10:44 19.2 °C 18.0 °C 1022.9 hPa WSW 8.7 km/h 11.9 km/h 93 % 0.0 mm
10:49 19.3 °C 18.0 °C 1022.9 hPa SSW 4.3 km/h 9.7 km/h 93 % 0.0 mm
10:54 19.5 °C 19.0 °C 1022.9 hPa WSW 7.9 km/h 9.0 km/h 94 % 0.0 mm
10:59 19.5 °C 19.0 °C 1022.9 hPa West 11.9 km/h 11.9 km/h 93 % 0.0 mm
11:04 19.5 °C 19.0 °C 1022.9 hPa WSW 9.7 km/h 13.7 km/h 93 % 0.0 mm
11:09 19.4 °C 18.0 °C 1022.9 hPa WSW 9.3 km/h 13.7 km/h 92 % 0.0 mm
11:14 19.5 °C 18.0 °C 1022.9 hPa WSW 9.0 km/h 12.2 km/h 92 % 0.0 mm
11:19 19.5 °C 18.0 °C 1022.9 hPa SW 7.9 km/h 12.2 km/h 92 % 0.0 mm
11:24 19.5 °C 18.0 °C 1022.9 hPa WSW 9.0 km/h 10.5 km/h 92 % 0.0 mm
11:29 19.5 °C 18.0 °C 1022.9 hPa WSW 7.9 km/h 10.5 km/h 92 % 0.0 mm
11:34 19.5 °C 18.0 °C 1022.9 hPa West 12.6 km/h 13.7 km/h 92 % 0.0 mm
11:39 19.4 °C 18.0 °C 1022.9 hPa West 10.1 km/h 13.7 km/h 92 % 0.0 mm
11:44 19.6 °C 18.0 °C 1022.9 hPa West 10.5 km/h 12.2 km/h 92 % 0.0 mm
11:49 19.6 °C 18.0 °C 1022.9 hPa West 9.7 km/h 13.7 km/h 92 % 0.0 mm
11:55 19.7 °C 18.0 °C 1022.9 hPa WSW 9.7 km/h 13.7 km/h 92 % 0.0 mm
12:00 19.7 °C 18.0 °C 1022.9 hPa WSW 6.1 km/h 11.9 km/h 92 % 0.0 mm
12:05 20.0 °C 19.0 °C 1022.9 hPa WSW 5.5 km/h 11.6 km/h 92 % 0.0 mm
12:10 20.2 °C 19.0 °C 1022.9 hPa WSW 7.6 km/h 11.6 km/h 92 % 0.0 mm
12:15 20.5 °C 19.0 °C 1022.9 hPa West 8.7 km/h 13.7 km/h 92 % 0.0 mm
12:20 20.6 °C 19.0 °C 1022.9 hPa WSW 12.2 km/h 13.7 km/h 91 % 0.0 mm
12:25 20.5 °C 19.0 °C 1022.9 hPa West 5.0 km/h 12.2 km/h 90 % 0.0 mm
12:30 20.4 °C 19.0 °C 1021.9 hPa Calm   13.7 km/h 90 % 0.0 mm
12:35 20.7 °C 19.0 °C 1021.9 hPa WSW 10.8 km/h 13.7 km/h 90 % 0.0 mm
12:40 21.3 °C 19.0 °C 1022.9 hPa SW 9.0 km/h 14.0 km/h 88 % 0.0 mm
12:45 21.4 °C 19.0 °C 1022.9 hPa West 6.4 km/h 14.0 km/h 86 % 0.0 mm
12:50 21.3 °C 19.0 °C 1022.9 hPa West 17.7 km/h 17.7 km/h 84 % 0.0 mm
12:55 21.2 °C 18.0 °C 1022.9 hPa West 9.0 km/h 17.7 km/h 83 % 0.0 mm
13:00 21.2 °C 18.0 °C 1022.9 hPa SW 11.9 km/h 16.6 km/h 83 % 0.0 mm
13:05 21.5 °C 19.0 °C 1022.9 hPa SW 9.3 km/h 14.8 km/h 84 % 0.0 mm
13:10 21.8 °C 19.0 °C 1022.9 hPa SW 5.8 km/h 11.9 km/h 83 % 0.0 mm
13:15 22.2 °C 19.0 °C 1022.9 hPa West 11.9 km/h 15.8 km/h 81 % 0.0 mm
13:20 22.1 °C 19.0 °C 1022.9 hPa WSW 9.7 km/h 15.8 km/h 81 % 0.0 mm
13:25 22.0 °C 19.0 °C 1022.9 hPa WSW 6.4 km/h 12.2 km/h 80 % 0.0 mm
13:30 21.8 °C 18.0 °C 1022.9 hPa West 10.5 km/h 14.0 km/h 80 % 0.0 mm
13:35 21.7 °C 18.0 °C 1022.9 hPa WSW 7.6 km/h 14.0 km/h 80 % 0.0 mm
13:40 21.8 °C 18.0 °C 1021.9 hPa WSW 12.6 km/h 14.3 km/h 80 % 0.0 mm
13:45 21.9 °C 19.0 °C 1021.9 hPa West 9.0 km/h 14.3 km/h 80 % 0.0 mm
13:50 22.0 °C 19.0 °C 1021.9 hPa West 13.7 km/h 16.3 km/h 80 % 0.0 mm
13:55 22.2 °C 19.0 °C 1021.9 hPa West 8.7 km/h 16.3 km/h 80 % 0.0 mm
14:00 22.6 °C 19.0 °C 1021.9 hPa West 10.5 km/h 14.0 km/h 79 % 0.0 mm
14:05 22.7 °C 19.0 °C 1021.9 hPa WSW 13.7 km/h 13.7 km/h 79 % 0.0 mm
14:11 22.4 °C 18.0 °C 1021.9 hPa WSW 10.5 km/h 13.7 km/h 78 % 0.0 mm
14:16 22.5 °C 19.0 °C 1021.9 hPa WSW 9.3 km/h 13.7 km/h 78 % 0.0 mm
14:21 22.5 °C 19.0 °C 1021.9 hPa West 11.9 km/h 12.6 km/h 78 % 0.0 mm
14:26 22.4 °C 18.0 °C 1022.9 hPa West 5.5 km/h 12.2 km/h 78 % 0.0 mm
14:31 22.3 °C 18.0 °C 1022.9 hPa SW 7.6 km/h 11.9 km/h 78 % 0.0 mm
14:36 22.3 °C 18.0 °C 1022.9 hPa WSW 10.5 km/h 10.5 km/h 78 % 0.0 mm
14:41 22.4 °C 18.0 °C 1022.9 hPa WSW 10.1 km/h 11.1 km/h 78 % 0.0 mm
14:46 22.4 °C 18.0 °C 1022.9 hPa West 10.5 km/h 13.0 km/h 77 % 0.0 mm
14:51 22.6 °C 19.0 °C 1022.9 hPa West 5.5 km/h 13.0 km/h 78 % 0.0 mm
14:56 22.8 °C 19.0 °C 1021.9 hPa West 11.1 km/h 14.0 km/h 77 % 0.0 mm
15:01 23.7 °C 20.0 °C 1021.9 hPa WSW 6.9 km/h 15.8 km/h 77 % 0.0 mm
15:06 24.3 °C 20.0 °C 1021.9 hPa West 2.1 km/h 15.8 km/h 76 % 0.0 mm
15:11 23.9 °C 19.0 °C 1022.9 hPa WSW 11.6 km/h 16.9 km/h 74 % 0.0 mm
15:16 23.7 °C 19.0 °C 1022.9 hPa WSW 6.4 km/h 16.9 km/h 73 % 0.0 mm
15:21 24.2 °C 19.0 °C 1022.9 hPa WSW 11.1 km/h 15.4 km/h 73 % 0.0 mm
15:26 24.4 °C 19.0 °C 1022.9 hPa SSW 2.1 km/h 15.4 km/h 72 % 0.0 mm
15:31 24.5 °C 19.0 °C 1022.9 hPa West 11.6 km/h 14.3 km/h 69 % 0.0 mm
15:32 24.5 °C 19.0 °C 1022.9 hPa WSW 8.7 km/h 14.3 km/h 69 % 0.0 mm
15:36 24.5 °C 19.0 °C 1022.9 hPa West 9.0 km/h 14.3 km/h 69 % 0.0 mm
15:41 24.5 °C 19.0 °C 1021.9 hPa West 12.6 km/h 13.7 km/h 70 % 0.0 mm
15:46 24.2 °C 18.0 °C 1021.9 hPa WNW 5.5 km/h 15.8 km/h 69 % 0.0 mm
15:51 23.9 °C 18.0 °C 1021.9 hPa West 9.0 km/h 15.8 km/h 70 % 0.0 mm
15:56 23.9 °C 18.0 °C 1022.9 hPa WNW 6.9 km/h 13.7 km/h 70 % 0.0 mm
16:00 23.8 °C 18.0 °C 1022.9 hPa West 11.9 km/h 13.7 km/h 71 % 0.0 mm
16:05 23.9 °C 19.0 °C 1022.9 hPa West 9.3 km/h 12.2 km/h 71 % 0.0 mm
16:10 24.0 °C 19.0 °C 1022.9 hPa WSW 11.9 km/h 12.6 km/h 71 % 0.0 mm
16:15 23.9 °C 19.0 °C 1022.9 hPa WSW 11.6 km/h 14.8 km/h 71 % 0.0 mm
16:20 23.7 °C 18.0 °C 1022.9 hPa WSW 9.7 km/h 14.8 km/h 71 % 0.0 mm
16:25 24.0 °C 19.0 °C 1022.9 hPa WNW 4.0 km/h 13.7 km/h 71 % 0.0 mm
16:30 24.0 °C 19.0 °C 1022.9 hPa West 8.7 km/h 15.1 km/h 71 % 0.0 mm
16:36 23.7 °C 19.0 °C 1022.9 hPa WSW 12.6 km/h 16.6 km/h 72 % 0.0 mm
16:41 23.4 °C 18.0 °C 1022.9 hPa WSW 5.0 km/h 16.6 km/h 72 % 0.0 mm
16:46 23.2 °C 18.0 °C 1022.9 hPa West 14.0 km/h 16.9 km/h 72 % 0.0 mm
16:51 23.2 °C 19.0 °C 1022.9 hPa West 10.5 km/h 17.7 km/h 74 % 0.0 mm
16:56 23.4 °C 18.0 °C 1022.9 hPa WNW 9.0 km/h 17.7 km/h 73 % 0.0 mm
17:01 23.2 °C 18.0 °C 1022.9 hPa WSW 11.9 km/h 17.7 km/h 72 % 0.0 mm
17:06 23.2 °C 18.0 °C 1022.9 hPa West 10.1 km/h 17.7 km/h 73 % 0.0 mm
17:11 23.3 °C 18.0 °C 1022.9 hPa West 16.3 km/h 17.7 km/h 73 % 0.0 mm
17:16 23.5 °C 19.0 °C 1022.9 hPa West 9.0 km/h 16.3 km/h 73 % 0.0 mm
17:21 23.6 °C 19.0 °C 1022.9 hPa West 15.4 km/h 15.8 km/h 73 % 0.0 mm
17:23 23.6 °C 19.0 °C 1022.9 hPa West 16.3 km/h 16.3 km/h 73 % 0.0 mm
17:28 24.2 °C 19.0 °C 1021.9 hPa WSW 4.7 km/h 17.7 km/h 72 % 0.0 mm
17:33 24.9 °C 19.0 °C 1021.9 hPa West 12.2 km/h 17.7 km/h 70 % 0.0 mm
17:38 25.4 °C 19.0 °C 1021.9 hPa West 15.1 km/h 16.9 km/h 68 % 0.0 mm
17:43 25.4 °C 19.0 °C 1021.9 hPa NNW 7.9 km/h 19.5 km/h 67 % 0.0 mm
17:48 25.5 °C 19.0 °C 1021.9 hPa West 12.6 km/h 19.5 km/h 66 % 0.0 mm
17:53 25.9 °C 19.0 °C 1021.9 hPa WSW 5.8 km/h 16.9 km/h 66 % 0.0 mm
17:58 26.2 °C 20.0 °C 1021.9 hPa WSW 8.7 km/h 13.0 km/h 65 % 0.0 mm
18:03 26.0 °C 19.0 °C 1021.9 hPa NW 9.3 km/h 11.9 km/h 64 % 0.0 mm
18:08 25.9 °C 19.0 °C 1021.9 hPa West 13.7 km/h 13.7 km/h 64 % 0.0 mm
18:13 26.0 °C 19.0 °C 1021.9 hPa West 13.0 km/h 14.0 km/h 64 % 0.0 mm
18:18 26.0 °C 19.0 °C 1021.9 hPa West 16.3 km/h 17.7 km/h 64 % 0.0 mm
18:23 25.1 °C 18.0 °C 1021.9 hPa WNW 4.7 km/h 17.7 km/h 64 % 0.0 mm
18:28 25.0 °C 18.0 °C 1021.9 hPa West 12.2 km/h 16.3 km/h 66 % 0.0 mm
18:33 25.0 °C 18.0 °C 1021.9 hPa WSW 9.3 km/h 14.3 km/h 66 % 0.0 mm
18:38 24.8 °C 18.0 °C 1021.9 hPa West 14.0 km/h 14.3 km/h 67 % 0.0 mm
18:43 25.0 °C 18.0 °C 1021.9 hPa WNW 10.5 km/h 15.4 km/h 66 % 0.0 mm
18:48 24.6 °C 18.0 °C 1021.9 hPa WSW 6.1 km/h 15.4 km/h 67 % 0.0 mm
18:53 24.8 °C 18.0 °C 1021.9 hPa West 13.7 km/h 15.4 km/h 67 % 0.0 mm
18:58 24.4 °C 18.0 °C 1021.9 hPa WSW 12.2 km/h 16.3 km/h 67 % 0.0 mm
19:03 24.2 °C 18.0 °C 1021.9 hPa West 9.0 km/h 16.3 km/h 67 % 0.0 mm
19:08 24.4 °C 18.0 °C 1021.9 hPa West 6.9 km/h 12.2 km/h 67 % 0.0 mm
19:13 24.5 °C 18.0 °C 1021.9 hPa WSW 10.5 km/h 12.2 km/h 67 % 0.0 mm
19:18 24.4 °C 18.0 °C 1021.9 hPa WSW 5.5 km/h 12.2 km/h 68 % 0.0 mm
19:23 23.9 °C 18.0 °C 1021.9 hPa West 5.8 km/h 12.2 km/h 68 % 0.0 mm
19:29 23.6 °C 18.0 °C 1021.9 hPa WSW 7.9 km/h 12.2 km/h 69 % 0.0 mm
19:34 23.4 °C 17.0 °C 1021.9 hPa West 5.5 km/h 12.2 km/h 69 % 0.0 mm
19:39 23.3 °C 17.0 °C 1021.9 hPa WSW 6.9 km/h 9.3 km/h 69 % 0.0 mm
19:44 23.4 °C 18.0 °C 1021.9 hPa West 6.4 km/h 12.2 km/h 70 % 0.0 mm
19:49 23.4 °C 17.0 °C 1021.9 hPa West 6.4 km/h 12.2 km/h 69 % 0.0 mm
19:53 23.4 °C 18.0 °C 1021.9 hPa WSW 9.3 km/h 10.5 km/h 70 % 0.0 mm
19:59 23.5 °C 18.0 °C 1021.9 hPa WSW 10.5 km/h 10.5 km/h 70 % 0.0 mm
20:04 23.7 °C 18.0 °C 1021.9 hPa WSW 5.0 km/h 11.6 km/h 70 % 0.0 mm
20:09 23.6 °C 18.0 °C 1021.9 hPa West 10.1 km/h 11.6 km/h 69 % 0.0 mm
20:14 23.4 °C 17.0 °C 1021.9 hPa SW 6.9 km/h 10.1 km/h 69 % 0.0 mm
20:19 23.1 °C 17.0 °C 1021.9 hPa West 6.4 km/h 9.7 km/h 70 % 0.0 mm
20:24 22.9 °C 17.0 °C 1021.9 hPa Calm   9.7 km/h 70 % 0.0 mm
20:29 22.7 °C 17.0 °C 1021.9 hPa WSW 9.7 km/h 10.1 km/h 71 % 0.0 mm
20:34 22.5 °C 17.0 °C 1021.9 hPa West 3.2 km/h 10.1 km/h 71 % 0.0 mm
20:39 22.3 °C 17.0 °C 1021.9 hPa Calm   9.7 km/h 71 % 0.0 mm
20:44 22.1 °C 17.0 °C 1021.9 hPa West 6.1 km/h 9.7 km/h 72 % 0.0 mm
20:49 21.9 °C 17.0 °C 1021.9 hPa WSW 1.8 km/h 6.9 km/h 74 % 0.0 mm
20:54 21.7 °C 17.0 °C 1021.9 hPa Calm   7.6 km/h 74 % 0.0 mm
20:59 21.6 °C 17.0 °C 1021.9 hPa WSW 2.1 km/h 7.6 km/h 75 % 0.0 mm
21:04 21.5 °C 17.0 °C 1021.9 hPa Calm   6.4 km/h 75 % 0.0 mm
21:09 21.2 °C 17.0 °C 1021.9 hPa Calm     76 % 0.0 mm
21:14 21.0 °C 17.0 °C 1021.9 hPa Calm     76 % 0.0 mm
21:19 20.8 °C 17.0 °C 1021.9 hPa Calm     77 % 0.0 mm
21:24 20.7 °C 17.0 °C 1021.9 hPa Calm     78 % 0.0 mm
21:29 20.4 °C 16.0 °C 1021.9 hPa Calm     78 % 0.0 mm
21:35 20.2 °C 17.0 °C 1021.9 hPa Calm     79 % 0.0 mm
21:40 19.9 °C 17.0 °C 1021.9 hPa Calm     80 % 0.0 mm
21:45 19.7 °C 16.0 °C 1021.9 hPa Calm     80 % 0.0 mm
21:50 19.4 °C 16.0 °C 1021.9 hPa Calm   1.8 km/h 81 % 0.0 mm
21:55 19.3 °C 16.0 °C 1021.9 hPa Calm   1.8 km/h 82 % 0.0 mm
22:00 19.0 °C 16.0 °C 1021.9 hPa Calm     82 % 0.0 mm
22:05 18.9 °C 16.0 °C 1021.9 hPa Calm     83 % 0.0 mm
22:10 18.6 °C 16.0 °C 1021.9 hPa Calm     84 % 0.0 mm
22:15 18.4 °C 16.0 °C 1021.9 hPa Calm     84 % 0.0 mm
22:20 18.2 °C 16.0 °C 1021.9 hPa Calm     85 % 0.0 mm
22:25 18.0 °C 16.0 °C 1021.9 hPa Calm     86 % 0.0 mm
22:30 17.8 °C 16.0 °C 1021.9 hPa Calm     87 % 0.0 mm
22:35 17.7 °C 16.0 °C 1021.9 hPa Calm     87 % 0.0 mm
22:40 17.5 °C 16.0 °C 1021.9 hPa Calm     88 % 0.0 mm
22:45 17.4 °C 15.0 °C 1021.9 hPa Calm     88 % 0.0 mm
22:50 17.3 °C 15.0 °C 1021.9 hPa Calm     88 % 0.0 mm
22:55 17.2 °C 16.0 °C 1021.9 hPa Calm     89 % 0.0 mm
23:00 17.1 °C 15.0 °C 1021.9 hPa Calm   4.3 km/h 89 % 0.0 mm
23:01 17.1 °C 15.0 °C 1021.9 hPa Calm   4.3 km/h 89 % 0.0 mm
23:06 17.0 °C 15.0 °C 1021.9 hPa Calm   4.7 km/h 90 % 0.0 mm
23:11 17.0 °C 15.0 °C 1021.9 hPa Calm   4.7 km/h 90 % 0.0 mm
23:17 16.8 °C 15.0 °C 1021.9 hPa Calm     91 % 0.0 mm
23:22 16.7 °C 15.0 °C 1021.9 hPa Calm   4.3 km/h 91 % 0.0 mm
23:27 16.6 °C 15.0 °C 1021.9 hPa Calm   5.0 km/h 91 % 0.0 mm
23:32 16.6 °C 15.0 °C 1021.9 hPa Calm   5.0 km/h 92 % 0.0 mm
23:37 16.6 °C 15.0 °C 1021.9 hPa Calm   2.6 km/h 92 % 0.0 mm
23:42 16.6 °C 15.0 °C 1021.9 hPa Calm     92 % 0.0 mm
23:47 16.5 °C 15.0 °C 1021.9 hPa Calm     92 % 0.0 mm
23:52 16.4 °C 15.0 °C 1021.9 hPa Calm     92 % 0.0 mm
23:57 16.3 °C 15.0 °C 1021.9 hPa Calm     92 % 0.0 mm
Le Gheer Warneton
Courtoisie de Weather Underground - 2.25 mb

Mise a jour : 18/12/2017 23:13:12
Généré par Cumulus 1.9.4 (1099)